Tracking 27402 objects as of 3-Jun-2023
HD Live streaming from Space Station
objects crossing your sky now

FENGYUN 1C DEB

Track FENGYUN 1C DEB now!
10-day predictions


NORAD ID: 31325
Int'l Code: 1999-025BQD
Perigee: 822.1 km
Apogee: 933.9 km
Inclination: 99.0 °
Period: 102.4 minutes
Semi major axis: 7248 km
RCS: 0.0037 m2 (small)
Launch date: May 10, 1999
Source: People's Republic of China (PRC)
Launch site: Taiyaun Space Center, China (TSC)

Note: This is SATELLITE DEBRIS
Your satellite tracking list
Your tracking list is empty




NASA's NSSDC Master Catalog

Two Line Element Set (TLE):
1 31325U 99025BQD 23152.93395335  .00002880  00000-0  17162-2 0  9999
2 31325  99.0157 233.3192 0077162 304.9782  54.4158 14.06648908467310
Source of the keplerian elements: AFSPC